Regional Weather Roundup
Issued by NWS

Home | Current Version | Previous Version | Text Only | Print | Product List | Glossary On
Versions: 1 2 3 4 5 6 7 8 9 10 11 12 13 14 15 16 17 18 19 20 21 22 23 24 25 26 27 28 29 30 31 32 33 34 35 36 37 38 39 40 41 42 43 44 45 46 47 48 49 50
000
ASUS43 KDTX 261301
RWRMI
MICHIGAN HOURLY REGIONAL WEATHER ROUNDUP
NATIONAL WEATHER SERVICE DETROIT/PONTIAC MI
800 AM EST SUN FEB 26 2017

NOTE: "FAIR" INDICATES FEW OR NO CLOUDS BELOW 12,000 FEET WITH NO
SIGNIFICANT WEATHER AND/OR OBSTRUCTION TO VISIBILITY.

MIZ047>049-052>055-059>063-066>070-074>076-081>083-261400-
SOUTHEAST LOWER MICHIGAN

CITY           SKY/WX    TMP DP  RH WIND       PRES   REMARKS
ADRIAN         CLEAR     23  20  88 SW6       30.09R WCI  16
ALMA           CLEAR     24  19  81 SW8       30.02R WCI  14
ANN ARBOR      CLEAR     22  19  89 S5        30.06R WCI  16
BAD AXE        CLEAR     23  17  77 SW7       30.00S WCI  15
CARO           CLEAR     22  18  83 S5        30.01R WCI  16
DETROIT CITY   CLEAR     24  18  77 SW8       30.08R WCI  15
DETROIT        PTCLDY    25  18  74 SW9       30.09R WCI  15
FLINT          CLEAR     23  18  81 SW8       30.03S WCI  14
GROSSE ILE     CLEAR     25  19  80 W6        30.08R WCI  18
HILLSDALE      CLEAR     21  18  86 SW5       30.05R WCI  15
HOWELL         CLEAR     22  18  87 S3        30.03S

CITY           SKY/WX    TMP DP  RH WIND       PRES   REMARKS
JACKSON        CLEAR     22  17  81 SW9       30.05R WCI  12
LAMBERTVILLE   CLEAR     26  21  82 SW5       30.10R WCI  20
LANSING        CLEAR     22  16  78 SW8       30.04R WCI  12
LAPEER         FAIR      23  17  80 SW5       30.03S WCI  16
MASON          CLEAR     23  20  89 SW5       30.04R WCI  16
MONROE         CLEAR     25  22  89 SW6       30.09R WCI  18
MT. CLEMENS    PTCLDY    25  16  69 SW8       30.05R WCI  16
PONTIAC        PTCLDY    22  17  81 SW7       30.02R WCI  13
PORT HOPE        N/A     25  17  72 VRB6      29.98R WCI  18
PORT HURON     CLEAR     23  16  74 SW3       30.06R
TRI CITIES     CLEAR     24  18  77 SW10      30.01R WCI  14
MIDLAND        FAIR      24  17  74 SW5       30.00R WCI  18
TROY           CLEAR     24  16  72 SW7       30.08R WCI  16
SAGINAW HB     CLEAR     27  19  74 SW9       30.01S WCI  17
$$
MIZ043>046-050>051-056>058-064>065-071>073-077>080-261400-
SOUTHWEST LOWER MICHIGAN

CITY           SKY/WX    TMP DP  RH WIND       PRES   REMARKS
BATTLE CREEK   MOCLDY    23  18  81 S9        30.05R WCI  13
BENTON HARBOR  CLEAR     24  15  68 S9        30.05S WCI  14
BIG RAPIDS     CLEAR     18  15  88 S3        29.95S
COLDWATER      CLEAR     22  18  81 SW8       30.07R WCI  13
FREMONT        MOCLDY    21  17  83 S5        29.96F WCI  15
HOLLAND        PTCLDY    24  17  74 S8        30.01F WCI  15
GRAND RAPIDS   MOCLDY    22  15  75 S8        30.01S WCI  12
IONIA          FAIR      23  17  77 S9        30.02R WCI  13
KALAMAZOO      CLOUDY    24  16  71 S13       30.05R WCI  12
LUDINGTON      CLOUDY    29  20  69 SW15G21   29.93S WCI  18
MARSHALL       CLEAR     22  17  81 SW6       30.06R WCI  14
MOUNT PLEASANT CLEAR     23  17  78 SW6       29.98S WCI  15
MUSKEGON       MOCLDY    29  20  69 SW14      29.99S WCI  18
SOUTH HAVEN    CLOUDY    24  18  77 S6        30.04S WCI  17
$$
MIZ016>042-261400-
NORTHERN LOWER MICHIGAN

CITY           SKY/WX    TMP DP  RH WIND       PRES   REMARKS
ALPENA         CLEAR     22  16  78 SW8       29.92S WCI  12
BEAVER ISLAND  CLOUDY    28  23  84 SW17      29.84S WCI  15
BELLAIRE       CLOUDY    23  18  80 S5        29.91S WCI  17
CADILLAC       CLOUDY    19  15  84 S8        29.89S WCI   8
CHARLEVOIX     LGT SNOW  24  21  88 S8        29.90S WCI  16
FRANKFORT      LGT SNOW  29  24  81 SW14G21   29.90S WCI  19
GAYLORD        CLEAR     18  11  74 S9        29.86S WCI   7
GRAYLING       CLEAR     20  15  80 SW7       29.90S WCI  11
HARBOR SPRINGS MOCLDY    22  18  84 S7        29.87R WCI  13
HOUGHTON LAKE  CLEAR     18  13  80 S9        29.93S WCI   7
MANISTEE       PTCLDY    23  18  81 SE5       29.92F WCI  17
OSCODA         CLEAR     20  15  81 SW6       29.96S WCI  12
PELLSTON       MOCLDY    23  16  74 S7        29.86S WCI  15
TRAVERSE CITY  FLURRIES  24  17  74 S6        29.90S WCI  17
$$
MIZ007>008-015-261400-
EASTERN UPPER MICHIGAN

CITY           SKY/WX    TMP DP  RH WIND       PRES   REMARKS
KINROSS        PTCLDY    20  18  92 S5        29.81S WCI  13
MACKINAC ISLAN CLOUDY    24  20  83 S9G17     29.83S WCI  14
NEWBERRY       CLOUDY    20  17  88 SW12      29.78S WCI   8
S. S. MARIE    CLOUDY    17  11  77 E3        29.81S
MUNISING         N/A     20  14  77 S8        29.76F WCI  10
$$
MIZ004>006-011>014-085-261400-
CENTRAL UPPER MICHIGAN

CITY           SKY/WX    TMP DP  RH WIND       PRES   REMARKS
MANISTIQUE     LGT SNOW  24  23  97 SW8G17    29.80F WCI  14
ESCANABA       FLURRIES  22  17  81 SW12      29.80F WCI  10
MENOMINEE      CLOUDY    22  19  89 SW12      29.83F WCI  10
SAWYER-GWINN   FLURRIES  16  10  79 S12       29.71F WCI   3
$$
MIZ001>003-009>011-084-261400-
WESTERN UPPER MICHIGAN

CITY           SKY/WX    TMP DP  RH WIND       PRES   REMARKS
IRON MOUNTAIN  CLOUDY    18  12  77 S6        29.72F WCI  10
HOUGHTON       LGT SNOW  22  18  85 SW7       29.63F VSB 3/4 WCI  13
COPPER HARBOR    N/A     23  20  88 SW7G18    29.64F WCI  15
IRONWOOD       FLURRIES  21  16  81 SW12      29.66S WCI   9
$$

ABBREVIATIONS USED IN REMARKS
   TC - TEMPERATURE IN CELSIUS
  WCI - WIND CHILL INDEX
   HX - HEAT INDEX
  VSB - VISIBILITY




USA.gov is the U.S. government's official web portal to all federal, state and local government web resources and services.